Location: Ku?niki
(51.4449°N, 17.8974°E)
Time: 19:20:29
(UTC+00:00)

Cosmos 2227 - Pass Details

Date: 18 September 2020
Orbit: 836 x 859 km, 71.0° (Epoch: 22 October)

Event Time Altitude Azimuth Distance (km) Brightness Sun altitude
Rises 17:58:47 0° 209° (SSW) 3,421 7.5 -10.6°
Reaches altitude 10° 18:01:14 10° 210° (SSW) 2,487 6.8 -11.0°
Maximum altitude 18:06:58 87° 298° (WNW) 863 4.3 -11.8°
Drops below altitude 10° 18:12:43 10° 30° (NNE) 2,489 6.5 -12.7°
Sets 18:15:10 0° 31° (NNE) 3,425 7.2 -13.0°
